#timestamp,LO_Frequency,Hit 
1502114415.2,286047018.0,N
1502114435.1,286047020.2,N
1502114436.0,286047020.2,N
1502114455.8,286047018.7,N
1502114475.6,286047021.8,N
1502114495.5,286047021.0,N
1502114515.3,286047021.7,N
1502114535.1,286047022.0,N
1502114555.9,286047021.6,N
1502114575.7,286047022.3,N
1502114595.5,286047020.9,N
1502114615.4,286047021.1,N
1502114635.2,286047023.2,P
1502114655.0,286047007.2,N
1502114655.9,286047007.2,N
1502114675.8,286047004.6,N
1502114695.6,286047004.4,N
1502114715.4,286046996.6,N
1502114735.3,286046995.6,N
1502114755.1,286046992.1,N
1502114756.0,286046992.1,N
1502114775.8,286046989.1,N
1502114795.7,286046989.4,N
1502114815.5,286046980.5,N
1502114835.3,286046975.9,N
1502114855.2,286046977.8,N
1502114875.9,286046974.5,N
1502114895.7,286046974.4,N
1502114915.6,286046974.8,N
1502114935.4,286046973.1,N
1502114955.2,286046975.5,N
1502114975.1,286046975.7,N
1502114976.0,286046975.7,N
1502114995.8,286046980.0,N
1502115015.6,286046974.5,N
1502115035.5,286046975.3,N
1502115055.3,286046968.4,N
1502115075.1,286046963.2,N
1502115095.9,286046956.9,N
1502115115.7,286046954.1,N
1502115135.5,286046954.5,N
1502115155.3,286046950.6,N
1502115175.2,286046950.9,N
1502115195.0,286046950.7,P
1502115195.9,286046950.7,P
1502115215.8,286046968.0,N
1502115235.6,286046970.0,N
1502115255.4,286046973.7,N
1502115275.2,286046972.7,N
1502115295.1,286046978.6,N
1502115296.0,286046978.6,N
1502115315.8,286046980.4,N
1502115335.6,286046981.6,N
1502115355.5,286046980.2,N
1502115375.3,286046978.0,N
1502115395.1,286046978.5,N
1502115415.9,286046975.6,N
1502115435.7,286046973.9,N
1502115455.5,286046973.3,N
1502115475.4,286046972.5,P
1502115495.2,286047004.2,P
1502115515.0,286047006.1,N
1502115515.9,286047006.1,N
1502115535.8,286047008.3,N
1502115555.6,286047008.0,N
1502115575.4,286047006.6,N
1502115595.3,286047008.1,N
1502115615.1,286047008.3,N
1502115616.0,286047008.3,N
1502115635.8,286047012.3,N
1502115655.7,286047007.8,N
1502115675.5,286047008.2,N
1502115695.3,286047006.1,N
1502115715.2,286047006.7,N
1502115735.9,286047007.6,N
1502115755.7,286047008.5,N
1502115775.5,286047011.6,N
1502115795.4,286047012.6,N
1502115815.2,286047015.2,N
1502115835.0,286047015.5,N
1502115836.0,286047015.5,N
1502115855.8,286047014.1,N
1502115875.6,286047016.8,N
1502115895.4,286047018.1,N
1502115915.3,286047018.3,N
1502115935.1,286047017.7,N
1502115955.8,286047019.7,N
1502115975.7,286047021.3,N
1502115995.5,286047017.3,N
1502116015.3,286047018.8,N
1502116035.2,286047017.9,P
1502116055.0,286047006.2,N
1502116055.9,286047006.2,N
1502116075.7,286047006.6,N
1502116095.6,286047003.5,N
1502116115.4,286047004.8,N
1502116135.2,286047006.0,N
1502116155.1,286047004.1,N
1502116156.0,286047004.1,N
1502116175.8,286047007.6,N
1502116195.6,286047006.5,N
1502116215.5,286047006.9,N
1502116235.3,286047003.0,N
1502116255.1,286047003.7,N
1502116275.9,286047004.4,N
1502116295.7,286046999.9,N
1502116315.5,286046997.0,N
1502116335.3,286046995.7,N
1502116355.2,286046992.5,N
1502116375.0,286046992.3,N
1502116375.9,286046992.3,N
1502116395.7,286046992.6,N
1502116415.6,286046993.5,N
1502116435.4,286046993.4,N
1502116455.2,286046993.8,N
1502116475.1,286046994.2,N
1502116476.0,286046994.2,N
1502116495.8,286046991.9,N
1502116515.6,286046992.6,N
1502116535.5,286046992.4,N
1502116555.3,286046990.9,N
1502116575.1,286046988.9,N
1502116595.9,286046989.8,N
1502116615.7,286046987.6,N
1502116635.5,286046987.1,N
1502116655.3,286046987.7,N
1502116675.2,286046983.8,N
1502116695.0,286046983.5,N
1502116695.9,286046983.5,N
1502116715.7,286046983.2,N
1502116735.6,286046983.8,N
1502116755.4,286046985.9,N
1502116775.2,286046989.8,N
1502116795.1,286046990.9,N
1502116815.2,286046992.0,N
1502116835.0,286046993.5,N
1502116835.9,286046993.5,N
1502116855.8,286046991.8,N
1502116875.6,286046996.4,N
1502116895.4,286046997.6,N
1502116915.3,286046999.1,N
1502116935.1,286047000.3,N
1502116936.0,286047000.3,N
1502116955.8,286047004.3,N
1502116975.7,286047004.7,N
1502116995.5,286047005.2,N
1502117015.3,286047008.8,N
1502117035.2,286047006.3,N
1502117055.9,286047005.0,N
1502117075.7,286047005.4,N
1502117095.6,286047005.1,N
1502117115.4,286047005.3,N
1502117135.2,286047009.2,N
1502117155.0,286047006.4,N
1502117156.0,286047006.4,N
1502117175.8,286047011.7,N
1502117195.6,286047017.0,N
1502117215.4,286047016.6,N
1502117235.3,286047021.4,N
1502117255.1,286047020.5,N
1502117275.8,286047024.7,N
1502117295.7,286047023.9,N
1502117315.5,286047022.7,N
1502117335.3,286047022.7,N
1502117355.2,286047019.8,N
1502117375.9,286047018.1,N
1502117395.7,286047014.7,N
1502117415.6,286047014.1,N
1502117435.4,286047016.7,N
1502117455.2,286047014.7,N
1502117475.1,286047014.5,N
1502117476.0,286047014.5,N
1502117495.8,286047016.8,N
1502117515.6,286047011.8,N
1502117535.5,286047010.2,N
1502117555.3,286047010.6,N
1502117575.1,286047012.4,N
1502117595.8,286047004.8,N
1502117615.7,286046998.9,N
1502117635.5,286046996.7,N
1502117655.3,286046995.9,N
1502117675.2,286046992.1,N
1502117695.9,286046994.1,N
1502117715.7,286046996.3,N
1502117735.6,286046995.5,N
1502117755.4,286046995.1,N
1502117775.2,286046995.3,N
1502117795.1,286046996.0,N
1502117796.0,286046996.0,N
1502117815.8,286046998.0,N
1502117835.6,286046996.5,N
1502117855.5,286046999.6,N
1502117875.3,286047000.5,N
1502117895.1,286046997.9,N
1502117915.8,286046993.9,N
1502117935.7,286046990.4,N
1502117955.5,286046990.6,N
1502117975.3,286046990.9,N
1502117995.2,286046991.4,N
